www.pogodaiklimat.ru
ПОГОДА в Фрайбурге
Время
и дата
00:54 30.01
01:54 30.01
02:54 30.01
03:54 30.01
04:54 30.01
05:54 30.01
06:54 30.01
07:54 30.01
08:54 30.01
09:54 30.01
10:54 30.01
11:54 30.01
12:54 30.01
13:54 30.01
14:54 30.01
15:54 30.01
16:54 30.01
17:54 30.01
18:54 30.01
19:54 30.01
20:01 30.01
20:09 30.01
20:27 30.01
20:36 30.01
20:52 30.01
20:54 30.01
21:17 30.01
21:29 30.01
21:40 30.01
21:43 30.01
21:54 30.01
22:18 30.01
22:54 30.01
23:14 30.01
23:32 30.01
23:41 30.01
23:54 30.01
00:54 31.01
01:20 31.01
01:32 31.01
01:54 31.01
02:54 31.01
03:32 31.01
03:54 31.01
04:54 31.01
05:54 31.01
06:54 31.01
07:54 31.01
Ветер
(напр.,м/с)
Видим. Явления Облачность Т
(С)
Тd
(С)
f
(%)
Тe
(С)
Тes
(С)
Комфортность P
(гПа)
Po
(гПа)
Тmin
(С)
Tmax
(С)
R
(мм)
R24
(мм)
S
(см)
штиль 0 16 км ясно -5.0 -6.1 92 -6 -6 1016.1 999.1 -5.6 -1.7
З 2 14 км ясно -6.1 -6.7 96 -11 -11 1017.1 999.7
СЗ 3 16 км 10/10 1140 м -2.2 -3.9 88 -7 -7 1017.8 1000.7
СЗ 5 16 км 10/10 1470 м -0.6 -3.3 82 -7 -7 1019.1 1002.1
С 5
{8}
16 км 2/2 1290 м +2.2 -3.9 64 -3 -3 1019.8 1002.7
СВ 2 16 км ясно -0.6 -5.0 72 -4 -4 1020.2 1003.1
С 2 16 км ясно -1.7 -4.4 82 -6 -6 1021.3 1004.1 -6.1 +3.3
штиль 0 16 км 2/2 1080 м -3.3 -5.6 84 -4 -4 1022.0 1004.7
В 2 16 км 8/8 1020 м -0.6 -5.0 72 -4 -4 1022.1 1004.7
штиль 0 16 км 2/2 990 м +1.7 -3.9 66 +1 +3 1021.9 1004.7
В 2 16 км 10/0 3300 m
[Ac]
+1.1 -5.0 64 -2 -1 1021.8 1004.4
В 2 16 км 8/0 3000 m
[Ac]
+2.2 -5.0 59 -1 +2 1020.8 1003.7
нст 2 16 км 10/8 1110 m
[Ac]
+3.3 -4.4 57 +1 +1 1019.6 1002.4 -5.0 +3.3
Ю 3
{8}
16 км 8/0 3000 m
[Ac]
+5.0 -5.0 48 +2 +4 1018.5 1001.4
нст 2 16 км 10/8 1230 m
[Ac]
+3.9 -4.4 55 +2 +2 1018.7 1001.7
штиль 0 16 км 10/10 1170 м +3.3 -4.4 57 +3 +3 1018.5 1001.4
Ю 2 16 км 10/10 1020 м +2.2 -3.9 64 -1 -1 1018.7 1001.7
Ю 2 16 км 10/10 1800 м +1.7 -3.3 69 -1 -1 1018.7 1001.7
штиль 0 14 км слабый снег 10/10 1380 m
[Ns]
+1.1 -2.2 79 0 0 1018.6 1001.4 +1.1 +5.0
штиль 0 5 км слабый снег, дымка 10/10 1140 m
[Ns]
+0.6 -1.1 88 -1 -1 1018.9 1001.7
штиль 0 3 км слабый снег, дымка 10/10 780 m
[Ns]
0.0 -1.1 92 -1 -1 1001.4
штиль 0 3 км слабый снег, дымка 10/10 720 m
[Ns]
0.0 -1.1 92 -1 -1 1001.4
штиль 0 3 км слабый снег, дымка 10/10 180 m
[Ns]
0.0 -1.1 92 -1 -1 1001.4
штиль 0 3 км слабый снег, дымка 10/10 180 m
[Ns]
0.0 -1.1 92 -1 -1 1001.4
штиль 0 2 км слабый снег, дымка 10/10 150 m
[Ns]
-1.0 -2.0 93 -2 -2 1001.4
штиль 0 2 км слабый снег, дымка 10/10 150 m
[Ns]
-0.6 -1.7 92 -2 -2 1018.7 1001.4
СЗ 2 2 км слабый снег, дымка 10/10 210 m
[Ns]
-0.6 -1.7 92 -4 -4 1001.7
СЗ 2 3 км слабый снег, дымка 10/10 180 m
[Ns]
-1.1 -1.7 96 -5 -5 1001.7
СЗ 2 3 км слабый снег, дымка 10/10 180 m
[Ns]
-1.1 -1.7 96 -5 -5 1001.7
штиль 0 3 км слабый снег, дымка 10/10 180 m
[Ns]
-1.1 -1.7 96 -2 -2 1001.7
СЗ 2 3 км слабый снег, дымка 10/10 180 m
[Ns]
-1.1 -2.2 92 -5 -5 1018.9 1001.7 1.0
штиль 0 3 км слабый снег, дымка 10/10 240 m
[Ns]
-1.1 -1.7 96 -2 -2 1001.7
штиль 0 3 км слабый снег, дымка 10/10 210 m
[Ns]
-1.1 -1.7 96 -2 -2 1018.6 1001.4
штиль 0 3 км слабый снег, дымка 10/10 180 m
[Ns]
-1.1 -2.2 92 -2 -2 1001.4
штиль 0 4 км слабый снег, дымка 10/10 180 m
[Ns]
-1.1 -2.2 92 -2 -2 1001.1
штиль 0 6 км слабый снег, дымка 10/10 180 m
[Ns]
-1.1 -2.2 92 -2 -2 1001.1
СВ 2 10 км слабый снег, дымка 10/10 150 m
[Ns]
-1.1 -2.2 92 -5 -5 1017.8 1000.7
штиль 0 10 км слабый снег, дымка 10/10 270 m
[Ns]
-1.7 -2.8 92 -3 -3 1017.8 1000.7 -1.7 +1.1 1.5
СВ 2 3 км слабый снег, дымка 10/10 150 m
[Ns]
-1.7 -3.3 89 -6 -6 1000.7
штиль 0 4 км слабый снег, дымка 10/10 150 m
[Ns]
-1.7 -3.3 89 -3 -3 1000.7
штиль 0 5 км слабый снег, дымка 10/10 600 m
[Ns]
-1.7 -3.3 89 -3 -3 1018.1 1001.1
штиль 0 6 км слабый снег, дымка 10/10 690 m
[Ns]
-2.2 -3.9 88 -3 -3 1018.2 1001.1
штиль 0 16 км 10/10 900 м -2.2 -3.9 88 -3 -3 1001.7
СЗ 2 16 км 10/10 960 м -2.2 -4.4 85 -6 -6 1018.5 1001.4 0.3
ЮВ 3 16 км 10/0 2400 m
[Ac]
-2.8 -3.9 92 -8 -8 1018.4 1001.4
штиль 0 16 км 10/0 2550 m
[Ac]
-3.3 -3.9 96 -5 -5 1019.0 1001.7
нст 3 16 км 10/5 1500 m
[Ac]
-3.3 -6.7 77 -8 -8 1019.7 1002.4 -3.3 -1.7 0.3 1.8
СЗ 2 16 км 10/10 1650 м -2.8 -7.8 68 -7 -7 1020.2 1003.1
Местоположение метеостанции Eastern Slopes Regional Airport: широта 43.9892 долгота -70.9503 высота над уровнем моря 137 м.
В архиве по умолчанию представлена погода в Фрайбурге за последние 1-2 суток. Обновление информации о фактической погоде в базе происходит ежечасно! Архивные данные за месяц целиком и за предыдущие месяцы Вы можете получить, выбрав интересующий диапазон дат из раскрывающегося списка и нажав кнопку "Ввод!".
Внимание! Архив погоды МЕТАР в базе сайта по станциям, не включенным в климатический монитор, хранится не более 60 дней. Нет смысла пытаться выбрать более раннюю дату.
*Определитесь, кто Вы:
Внимание! Время в таблицах - местное (без учета летнего времени). Для получения всемирного времени необходимо вычесть поправку, которая равна -5 ч.
Смотрите также архив погоды в соседних городах и на ближайших метеорологических станциях:
Партнеры нашего сайта:      
Пояснения к столбцам:
  • Ветер - указаны скорость ветра в м/с - средняя за 10 мин, порывы в срок и между сроками (в фигурных скобках) и направление, откуда дует ветер: С - северный,
  • СВ - северо-восточный, В - восточный, ЮВ - юго-восточный, Ю - южный, ЮЗ - юго-западный, З - западный, СЗ - северо-западный.
  • Видимость - горизонтальная дальность видимости в метрах или километрах. При видимости от 1 до 10 км при отсутствии осадков обычно наблюдается дымка, при ухудшении видимости до 1 км и менее - туман. В сухую погоду видимость может ухудшаться дымом, пылью или мглою.
  • Явления - указаны атмосферные явления, наблюдавшиеся в срок или в последний час перед сроком; фигурными скобками обозначены явления, наблюдавшиеся между сроками (за 1-3 часа до срока); квадратными скобками обозначены град или гололедные отложения с указанием их диаметра в мм.
  • Облачность - указаны через наклонную черту общая и нижняя облачность в баллах и высота нижней границы облаков в метрах; квадратными скобками обозначены формы облаков: Ci - перистые, Cs - перисто-слоистые, Cc - перисто-кучевые, Ac - высококучевые, As - высокослоистые, Sc - слоисто-кучевые, Ns - слоисто-дождевые, Cu - кучевые, Cb - кучево-дождевые. Подробнее классификацию облаков см. в Атласе облаков (PDF).
  • T - Температура воздуха - температура, измеренная на высоте 2 м над землей.
  • Td - Температура точки росы - температура, при понижении до которой содержащийся в воздухе водяной пар достигнет насыщения.
  • f - Относительная влажность воздуха - влажноcть воздуха, измеренная на высоте 2 м над землей.
  • Te - Эффективная температура - температура, которую ощущает одетый по сезону человек в тени. Характеристика душности погоды. При расчете учитывается влияние влажности воздуха и скорости ветра на теплоощущения человека.
  • Tes - Эффективная температура на солнце - температура, которую ощущает человек, с поправкой на солнечный нагрев. Характеристика знойности погоды. Зависит от высоты солнца над горизонтом, облачности и скорости ветра. Ночью, в пасмурную погоду, а также при ветре 12 м/с и более поправка равна нулю.
  • P - Атмосферное давление - приведенное к уровню моря атмосферное давление.
  • Po - Атмосферное давление - измеренное на уровне метеостанции атмосферное давление.
  • Tmin - Минимальная температура - минимум температуры воздуха на высоте 2 м над землей.
  • Tmax - Максимальная температура - максимум температуры воздуха на высоте 2 м над землей.
  • R - Количество осадков - Количество выпавших осадков за период времени, мм. При наведении курсора мыши на число - период времени, за который выпало указанное количество осадков.
  • R24 - Количество осадков - Количество выпавших осадков за 24 часа, мм.
  • S - Снежный покров - Высота снежного покрова, см. При наведении курсора мыши на число - состояние снежного покрова и степень покрытия местности в баллах.